W0ANA Weather Reports


time (UTC)temp
C
wind
direction
speed
KPH
gust
KPH
rain 1hr
cm
rain 24hr
cm
rain mn
cm
humidity
%
barometer
mb
20260502233023 18 203 1.6 6.4 0.00 0.00 0.00 35 1009.8
20260502231524 18 217 3.2 12.9 0.00 0.00 0.00 33 1009.9
20260502230021 18 187 0.0 1.6 0.00 0.00 0.00 33 1009.9
20260502224520 18 257 1.6 8.0 0.00 0.00 0.00 34 1010.3
20260502223016 18 203 3.2 8.0 0.00 0.00 0.00 33 1010.5
20260502221518 18 249 3.2 11.3 0.00 0.00 0.00 33 1010.5
20260502220015 18 231 9.7 19.3 0.00 0.00 0.00 32 1010.5
20260502214514 18 228 8.0 17.7 0.00 0.00 0.00 32 1010.7
20260502213013 18 232 8.0 16.1 0.00 0.00 0.00 32 1010.9
20260502211509 18 229 3.2 12.9 0.00 0.00 0.00 32 1011.2
20260502210007 18 208 8.0 22.5 0.00 0.00 0.00 32 1011.5
20260502204507 18 191 3.2 24.1 0.00 0.00 0.00 32 1011.9
20260502203002 18 233 6.4 25.7 0.00 0.00 0.00 31 1012.2
20260502201600 17 154 6.4 19.3 0.00 0.00 0.00 31 1012.6
20260502200058 18 224 4.8 19.3 0.00 0.00 0.00 31 1012.9
20260502194554 17 210 4.8 20.9 0.00 0.00 0.00 32 1013.2
20260502193049 17 79 4.8 16.1 0.00 0.00 0.00 33 1013.4
20260502191556 16 147 11.3 20.9 0.00 0.00 0.00 33 1013.7
20260502190042 16 259 8.0 14.5 0.00 0.00 0.00 33 1014.1
20260502184541 16 249 3.2 20.9 0.00 0.00 0.00 33 1014.4
20260502183039 16 257 9.7 22.5 0.00 0.00 0.00 32 1014.6
20260502181535 15 170 6.4 19.3 0.00 0.00 0.00 33 1014.8
20260502163023 13 198 3.2 20.9 0.00 0.00 0.00 35 1016.5
20260502161515 13 258 6.4 14.5 0.00 0.00 0.00 36 1016.7
20260502151506 12 235 1.6 11.3 0.00 0.00 0.00 43 1017.6
20260502150112 11 242 4.8 11.3 0.00 0.00 0.00 44 1017.9
20260502123041 2 214 0.0 3.2 0.00 0.00 0.00 80 1018.7
20260502121526 1 215 0.0 1.6 0.00 0.00 0.00 86 1018.1
20260502114525 0 221 0.0 1.6 0.00 0.00 0.00 89 1018.2
20260502113024 -1 222 0.0 0.0 0.00 0.00 0.00 87 1018.1
20260502111526 -1 222 0.0 0.0 0.00 0.00 0.00 86 1018.0
20260502110026 0 222 0.0 0.0 0.00 0.00 0.00 86 1018.2
20260502104522 0 222 0.0 0.0 0.00 0.00 0.00 86 1017.8
20260502103021 0 222 0.0 0.0 0.00 0.00 0.00 85 1017.9
20260502101520 0 222 0.0 0.0 0.00 0.00 0.00 84 1017.9
20260502091511 0 222 0.0 0.0 0.00 0.00 0.00 80 1017.8
20260502070059 1 222 0.0 0.0 0.00 0.00 0.00 75 1017.8
20260502064600 1 222 0.0 0.0 0.00 0.00 0.00 74 1018.2
20260502063117 2 222 0.0 0.0 0.00 0.00 0.00 75 1018.4
20260502061554 2 222 0.0 0.0 0.00 0.00 0.00 75 1018.0
20260502060057 2 222 0.0 0.0 0.00 0.00 0.00 73 1018.0
20260502054548 2 222 0.0 0.0 0.00 0.00 0.00 73 1018.0
20260502053055 2 222 0.0 0.0 0.00 0.00 0.00 70 1018.1
20260502051543 2 222 0.0 0.0 0.00 0.00 0.00 69 1018.1
20260502050040 2 222 0.0 0.0 0.00 0.00 0.00 68 1018.1
20260502044540 2 222 0.0 0.0 0.00 0.00 0.00 66 1018.2
20260502043041 3 222 0.0 0.0 0.00 0.00 0.00 65 1018.5
20260502041539 3 222 0.0 0.0 0.00 0.00 0.00 64 1018.5
20260502040039 3 222 0.0 0.0 0.00 0.00 0.00 62 1018.5
20260502034538 4 222 0.0 0.0 0.00 0.00 0.00 59 1018.5
20260502033041 5 222 0.0 0.0 0.00 0.00 0.00 61 1018.5
20260502031537 5 222 0.0 0.0 0.00 0.00 0.00 57 1018.5
20260502030040 5 222 0.0 0.0 0.00 0.00 0.00 54 1018.3
20260502024536 6 222 0.0 1.6 0.00 0.00 0.00 55 1018.1
20260502023037 6 220 0.0 0.0 0.00 0.00 0.00 52 1018.1
20260502021535 7 220 0.0 0.0 0.00 0.00 0.00 46 1017.9
20260502020039 8 219 0.0 0.0 0.00 0.00 0.00 43 1017.8
20260502014533 8 220 0.0 0.0 0.00 0.00 0.00 38 1017.6
20260502013035 10 220 0.0 0.0 0.00 0.00 0.00 36 1017.6
20260502011532 10 220 0.0 0.0 0.00 0.00 0.00 35 1017.9
20260502010032 11 229 0.0 1.6 0.00 0.00 0.00 33 1017.9
20260502004532 11 240 0.0 1.6 0.00 0.00 0.00 32 1017.4
20260502003031 11 132 0.0 1.6 0.00 0.00 0.00 31 1017.4
20260502001531 11 356 0.0 3.2 0.00 0.00 0.00 32 1017.4
20260502000030 12 288 0.0 4.8 0.00 0.00 0.00 31 1017.4
20260501234536 12 250 0.0 1.6 0.00 0.00 0.00 31 1017.8